Powrót do katalogu

NOAA 8

AktywnyPogodaSSO
NORAD 13923·PAYLOAD·🇺🇸 United States

Wystrzelony Mar 28, 1983 z Vandenberg Space Force Base

Loading…

Następne Przeloty (najbliższe 24 godziny)

TLE

ŚwieżeSource: Space-Track

Epoka: Sep 14, 2026, 00:14 UTC

1 13923U 83022A   26257.00986398  .00000070  00000-0  44691-4 0  9993
2 13923  98.7329 270.3768 0014784   3.4362 356.6919 14.29821475263769

Śledź NOAA 8 w czasie rzeczywistym z AllMySat

Download on the App Store